Tracking 22779 objects as of 12-Apr-2021
HD Live streaming from Space Station
objects crossing your sky now

STARLINK-1907

Track STARLINK-1907 now!
10-day predictions
STARLINK-1907 is classified as:


NORAD ID: 47177
Int'l Code: 2020-088BH
Perigee: 552.8 km
Apogee: 555.9 km
Inclination: 53.1 °
Period: 95.6 minutes
Semi major axis: 6925 km
RCS: Unknown
Launch date: November 25, 2020
Source: United States (US)
Launch site: AIR FORCE EASTERN TEST RANGE (AFETR)
aabbcc
Your satellite tracking list
Your tracking list is empty




NASA's NSSDC Master Catalog

Two Line Element Set (TLE):
1 47177U 20088BH  21101.91668981 -.00000067  00000-0  14418-4 0  9993
2 47177  53.0566  59.6926 0002256  63.5873 144.4284 15.06394626  1759
Source of the keplerian elements: AFSPC